Regional Weather Roundup
Issued by NWS

Home | Current Version | Previous Version | Graphics & Text | Print | Product List | Glossary On
Versions: 1 2 3 4 5 6 7 8 9 10 11 12 13 14 15 16 17 18 19 20 21 22 23 24 25 26 27 28 29 30 31 32 33 34 35 36 37 38 39 40 41 42 43 44 45 46 47 48 49 50
000
ASUS43 KLMK 280410
RWRKY
NATIONAL WEATHER SERVICE LOUISVILLE KY
1100 PM EST THU NOV 27 2014

NOTE "FAIR" INDICATES FEW OR NO CLOUDS BELOW 12,000 FEET
WITH NO SIGNIFICANT WEATHER AND/OR OBSTRUCTIONS TO VISIBILITY.

KYZ001>023-026-027-061>063-070>075-280500-
WESTERN AND SOUTH CENTRAL KENTUCKY

CITY           SKY/WX    TMP DP  RH WIND       PRES   REMARKS
PADUCAH        PTCLDY    26  24  92 CALM      30.46F
HENDERSON      CLEAR     23  16  74 CALM      30.47F
OWENSBORO      MIX PCPN  25  22  88 CALM      30.48S
HOPKINSVILLE   CLOUDY    30  24  81 SE3       30.47F
BOWLING GREEN  MOCLDY    28  18  66 CALM      30.48S
GLASGOW        CLOUDY    29  21  71 CALM      30.46S
$$

KYZ024-025-028>034-038-045-046-053-280500-
NORTH CENTRAL KENTUCKY

CITY           SKY/WX    TMP DP  RH WIND       PRES   REMARKS
LOUISVILLE/SDF FLURRIES  30  22  72 W8        30.44S WCI  22
LOUISVILLE/LOU CLOUDY    29  22  75 W6        30.44S WCI  23
FORT KNOX      MOCLDY    26  21  81 W6        30.42F WCI  20
$$

KYZ035>037-039>044-047>052-055>060-089>105-280500-
NORTHEAST KENTUCKY

CITY           SKY/WX    TMP DP  RH WIND       PRES   REMARKS
LEXINGTON      CLOUDY    27  19  72 W7        30.41S WCI  19
COVINGTON      CLOUDY    28  19  69 W12       30.38F WCI  18
FRANKFORT      CLOUDY    28  16  60 W8        30.41S WCI  20
$$

KYZ054-064>069-076>088-106>120-280500-
SOUTHEAST KENTUCKY

CITY           SKY/WX    TMP DP  RH WIND       PRES   REMARKS
JACKSON        CLOUDY    29  22  75 VRB3      30.35F
LONDON         CLOUDY    29  21  72 NW8       30.40S WCI  21
SOMERSET       CLOUDY    28  21  74 NW8       30.44F WCI  20
MIDDLESBORO    NOT AVBL
MONTICELLO     FLURRIES  29  22  75 NW8       30.46F WCI  21
$$




USA.gov is the U.S. government's official web portal to all federal, state and local government web resources and services.